Frankfort, MI

6:47 PM EST on November 20, 2017 (GMT -0500)
Frankfort

Weather History for KFKS - September, 2013

Change the Weather History Date:

Sunday, September 15, 2013

  Actual Average (KMBL) Record (KMBL)
Temperature  
Mean Temperature 57 °F -  
Max Temperature 62 °F 69 °F 82 °F (1967)
Min Temperature 52 °F 50 °F 34 °F (1964)
Degree Days  
Heating Degree Days 8    
Growing Degree Days 7 (Base 50)    
Moisture  
Dew Point 53 °F    
Average Humidity 82    
Maximum Humidity 94    
Minimum Humidity 70    
Precipitation  
Precipitation 0.00 in - - ()
Sea Level Pressure  
Sea Level Pressure 30.06 in    
Wind  
Wind Speed 4 mph (NW)    
Max Wind Speed 12 mph    
Max Gust Speed 21 mph    
Visibility 10 miles    
Events Rain    
Averages and records for this station are not official NWS values.
T = Trace of Precipitation, MM = Missing Value Source: NWS Daily Summary

Daily Weather History Graph

Daily Weather History Graph

Search for Another Location

Airport or City:

Trip Planner

Search our weather history database for the weather conditions in past years. The results will help you decide how hot, cold, wet, or windy it might be!

Date:

Astronomy

Sep. 15, 2013 Rise Set
Actual Time 7:23 AM EDT 7:55 PM EDT
Civil Twilight 6:54 AM EDT 8:24 PM EDT
Nautical Twilight 6:19 AM EDT 8:58 PM EDT
Astronomical Twilight 5:44 AM EDT 9:34 PM EDT
Moon 5:29 PM EDT (9/15) 2:52 AM EDT (9/15)
Length of Visible Light 13h 29m
Length of Day
12h 31m
Waxing Gibbous, 82% of the Moon is Illuminated
Sep 15
Waxing Gibbous
Sep 19
Full
Sep 26
Last Quarter
Oct 4
New
Oct 11
First Quarter

Hourly Weather History & Observations

Time (EDT) Temp. Dew Point Humidity Pressure Visibility Wind Dir Wind Speed Gust Speed Precip Events Conditions
12:12 AM 61.3 °F 52.3 °F 72% 30.02 in 10.0 mi South 8.1 mph - N/A   Clear
12:32 AM 60.8 °F 52.2 °F 73% 30.02 in 10.0 mi SSE 5.8 mph - N/A   Clear
12:52 AM 60.3 °F 52.2 °F 75% 30.01 in 10.0 mi SE 3.5 mph - N/A   Clear
1:12 AM 60.1 °F 52.3 °F 76% 30.01 in 10.0 mi SE 3.5 mph - N/A   Clear
1:32 AM 60.1 °F 52.7 °F 77% 30.01 in 10.0 mi Calm Calm - N/A   Clear
1:52 AM 60.1 °F 52.7 °F 77% 30.01 in 10.0 mi SE 3.5 mph - N/A   Clear
2:12 AM 60.4 °F 52.9 °F 76% 30.01 in 10.0 mi Calm Calm - N/A   Clear
2:33 AM 60.3 °F 52.9 °F 77% 30.00 in 10.0 mi SE 3.5 mph - N/A   Clear
2:53 AM 60.4 °F 52.9 °F 76% 30.00 in 10.0 mi Calm Calm - N/A   Clear
3:13 AM 61.9 °F 53.6 °F 74% 30.00 in 10.0 mi SSW 4.6 mph - N/A   Clear
3:33 AM 62.1 °F 53.6 °F 74% 30.00 in 10.0 mi South 5.8 mph - N/A   Scattered Clouds
3:53 AM 61.9 °F 53.2 °F 73% 30.00 in 10.0 mi South 5.8 mph - N/A   Scattered Clouds
4:13 AM 61.7 °F 53.2 °F 74% 30.01 in 10.0 mi SSW 4.6 mph - N/A   Overcast
4:33 AM 61.7 °F 53.1 °F 73% 30.01 in 10.0 mi South 4.6 mph - N/A   Overcast
4:53 AM 61.9 °F 52.9 °F 72% 30.00 in 10.0 mi South 3.5 mph - N/A   Overcast
5:14 AM 62.1 °F 52.7 °F 71% 30.01 in 10.0 mi SSW 5.8 mph - N/A   Overcast
5:34 AM 61.5 °F 52.7 °F 73% 29.98 in 10.0 mi Calm Calm - N/A   Overcast
5:54 AM 60.3 °F 53.1 °F 77% 30.01 in 10.0 mi SW 4.6 mph - N/A   Overcast
6:14 AM 61.2 °F 52.7 °F 74% 30.01 in 10.0 mi SSW 4.6 mph - N/A Rain Light Rain
6:34 AM 59.9 °F 53.8 °F 80% 30.02 in 10.0 mi WSW 4.6 mph 16.1 mph N/A Rain Light Rain
6:54 AM 59.0 °F 54.1 °F 84% 30.00 in 10.0 mi Calm Calm - N/A Rain Light Rain
7:14 AM 57.7 °F 55.4 °F 92% 30.00 in 10.0 mi Calm Calm - N/A   Overcast
7:34 AM 57.4 °F 55.0 °F 92% 30.00 in 10.0 mi Calm Calm - N/A   Overcast
7:54 AM 57.2 °F 54.9 °F 92% 30.00 in 10.0 mi Calm Calm - N/A   Overcast
8:15 AM 56.8 °F 54.9 °F 93% 30.00 in 7.0 mi Calm Calm - N/A   Overcast
8:35 AM 57.6 °F 55.4 °F 92% 30.00 in 10.0 mi Calm Calm - N/A   Overcast
8:55 AM 57.4 °F 55.4 °F 93% 30.00 in 10.0 mi Calm Calm - N/A   Overcast
9:15 AM 57.4 °F 55.6 °F 94% 30.01 in 10.0 mi Calm Calm - N/A   Overcast
9:35 AM 58.3 °F 56.1 °F 93% 30.01 in 10.0 mi Calm Calm - N/A   Overcast
9:55 AM 58.1 °F 56.3 °F 94% 30.01 in 10.0 mi Calm Calm - N/A   Overcast
10:15 AM 58.6 °F 56.7 °F 93% 30.02 in 10.0 mi Calm Calm - N/A   Overcast
10:35 AM 59.0 °F 57.0 °F 93% 30.01 in 10.0 mi Calm Calm - N/A   Overcast
10:55 AM 59.4 °F 57.4 °F 93% 30.03 in 10.0 mi Calm Calm - N/A   Overcast
11:15 AM 60.1 °F 57.0 °F 90% 30.04 in 7.0 mi West 9.2 mph - N/A Rain Rain
11:36 AM 58.5 °F 55.2 °F 89% 30.04 in 10.0 mi Calm Calm - N/A Rain Light Rain
11:56 AM 58.8 °F 55.9 °F 90% 30.04 in 5.0 mi Calm Calm - N/A Rain Heavy Rain
12:16 PM 58.6 °F 55.6 °F 90% 30.04 in 7.0 mi NW 6.9 mph - N/A Rain Light Rain
12:36 PM 58.1 °F 54.5 °F 88% 30.05 in 10.0 mi NW 6.9 mph - N/A Rain Light Rain
12:56 PM 57.6 °F 54.0 °F 88% 30.05 in 10.0 mi NW 3.5 mph - N/A Rain Rain
1:16 PM 57.7 °F 54.7 °F 90% 30.05 in 10.0 mi Calm Calm - N/A Rain Rain
1:31 PM 57.2 °F 54.0 °F 89% 30.05 in 10.0 mi NNW 4.6 mph - N/A Rain Rain
1:51 PM 57.7 °F 54.5 °F 89% 30.05 in 10.0 mi NW 3.5 mph - N/A Rain Light Rain
2:11 PM 58.1 °F 54.9 °F 89% 30.05 in 10.0 mi Calm Calm - N/A Rain Light Rain
2:32 PM 58.3 °F 55.2 °F 90% 30.05 in 10.0 mi Calm Calm - N/A Rain Light Rain
2:52 PM 58.5 °F 55.6 °F 90% 30.05 in 10.0 mi Calm Calm - N/A Rain Light Rain
3:12 PM 59.0 °F 55.6 °F 88% 30.05 in 10.0 mi NW 4.6 mph - N/A Rain Light Rain
3:32 PM 61.5 °F 56.8 °F 85% 30.05 in 10.0 mi West 5.8 mph - N/A   Scattered Clouds
3:52 PM 61.5 °F 53.8 °F 76% 30.05 in 10.0 mi West 5.8 mph - N/A   Mostly Cloudy
4:12 PM 61.2 °F 53.8 °F 77% 30.05 in 10.0 mi West 4.6 mph - N/A   Overcast
4:32 PM 61.7 °F 54.7 °F 78% 30.05 in 10.0 mi West 4.6 mph - N/A   Overcast
4:52 PM 61.0 °F 54.5 °F 79% 30.06 in 10.0 mi West 5.8 mph - N/A   Overcast
5:12 PM 60.4 °F 54.5 °F 81% 30.07 in 10.0 mi West 3.5 mph - N/A   Overcast
5:32 PM 59.9 °F 55.0 °F 84% 30.07 in 10.0 mi Calm Calm - N/A   Overcast
5:53 PM 59.9 °F 55.0 °F 84% 30.08 in 10.0 mi Calm Calm - N/A   Overcast
6:13 PM 59.2 °F 55.2 °F 87% 30.08 in 7.0 mi NNW 6.9 mph - N/A Rain Light Rain
6:33 PM 57.9 °F 54.9 °F 90% 30.09 in 4.0 mi NNW 9.2 mph 18.4 mph N/A Rain Rain
6:53 PM 57.2 °F 54.3 °F 90% 30.10 in 3.0 mi North 8.1 mph - N/A   Drizzle
7:13 PM 56.1 °F 52.9 °F 89% 30.11 in 5.0 mi North 11.5 mph 17.3 mph N/A   Light Drizzle
7:33 PM 55.6 °F 51.1 °F 85% 30.12 in 10.0 mi North 9.2 mph 20.7 mph N/A   Overcast
7:53 PM 55.4 °F 50.9 °F 85% 30.13 in 10.0 mi North 5.8 mph - N/A   Overcast
8:13 PM 55.0 °F 50.0 °F 83% 30.14 in 10.0 mi North 9.2 mph 20.7 mph N/A   Overcast
8:33 PM 54.5 °F 48.9 °F 81% 30.15 in 10.0 mi North 10.4 mph 20.7 mph N/A   Overcast
8:54 PM 54.5 °F 48.6 °F 80% 30.16 in 10.0 mi North 10.4 mph 20.7 mph N/A   Overcast
9:14 PM 54.5 °F 48.2 °F 79% 30.17 in 10.0 mi North 9.2 mph 17.3 mph N/A   Overcast
9:34 PM 54.5 °F 47.5 °F 77% 30.18 in 10.0 mi North 8.1 mph - N/A   Overcast
9:54 PM 54.0 °F 47.3 °F 78% 30.19 in 10.0 mi North 10.4 mph 17.3 mph N/A   Overcast
10:14 PM 54.0 °F 46.8 °F 77% 30.19 in 10.0 mi North 10.4 mph - N/A   Overcast
10:34 PM 53.8 °F 45.7 °F 74% 30.20 in 10.0 mi North 9.2 mph - N/A   Overcast
10:54 PM 53.6 °F 45.7 °F 75% 30.20 in 10.0 mi North 4.6 mph - N/A   Overcast
11:14 PM 53.2 °F 44.6 °F 72% 30.20 in 10.0 mi NNE 8.1 mph - N/A   Overcast
11:35 PM 52.9 °F 43.2 °F 70% 30.21 in 10.0 mi NNE 3.5 mph 16.1 mph N/A   Overcast
11:55 PM 52.7 °F 43.2 °F 70% 30.22 in 10.0 mi NNE 6.9 mph - N/A   Overcast